This demonstration page uses our WeatherBlox Daily Observations layout. Learn more.

Left ArrowRight Arrow

39.01783, -85.05884

Hourly Observations for December 11, 2020

Temp ( °F °C ) Dew Point ( °F °C ) Humidity (%) Winds ( mph kmh ) Pressure ( in mb ) Visibility ( mi km ) Precip ( " mm )
12:52 am 00:52 Clear 43 6.1 34 1.1 71 71 S 8 13 29.97 1015 10 16 N/A
1:52 am 01:52 Clear 44 6.7 35 1.7 71 71 S 9 15 29.97 1015 10 16 N/A
2:52 am 02:52 Clear 43 6.1 34 1.1 71 71 S 8 13 29.98 1015 10 16 N/A
3:52 am 03:52 Mostly Clear 44 6.7 35 1.7 71 71 S 8 13 30.00 1016 10 16 N/A
4:52 am 04:52 Mostly Clear 44 6.7 35 1.7 71 71 S 10 17 30.01 1016 10 16 N/A
5:52 am 05:52 Mostly Clear 44 6.7 35 1.7 71 71 S 10 17 30.01 1016 10 16 N/A
6:52 am 06:52 Partly Cloudy 44 6.7 35 1.7 71 71 S 9 15 30.02 1017 10 16 N/A
7:52 am 07:52 Partly Cloudy 43 6.1 35 1.7 74 74 S 9 15 30.02 1017 10 16 N/A
8:52 am 08:52 Mostly Cloudy 47 8.3 37 2.8 69 69 S 10 17 30.02 1017 10 16 N/A
9:52 am 09:52 Mostly Cloudy 52 11.1 37 2.8 57 57 SSW 10 17 30.02 1017 10 16 N/A
10:52 am 10:52 Mostly Cloudy 56 13.3 38 3.3 51 51 SSW 10 17 30.03 1017 10 16 N/A
11:52 am 11:52 Mostly Cloudy 59 15 38 3.3 46 46 SSW 12 19 30.01 1016 10 16 N/A
12:52 pm 12:52 Mostly Cloudy 62 16.7 39 3.9 43 43 SW 10 17 29.99 1016 10 16 N/A
1:52 pm 13:52 Mostly Cloudy 62 16.7 38 3.3 41 41 SSW 14 22 29.96 1014 10 16 N/A
2:52 pm 14:52 Mostly Cloudy 63 17.2 35 1.7 35 35 SSW 10 17 29.94 1014 10 16 N/A
3:52 pm 15:52 Mostly Cloudy 62 16.7 36 2.2 38 38 SSW 12 19 29.93 1014 10 16 N/A
4:52 pm 16:52 Mostly Cloudy 61 16.1 38 3.3 43 43 SSW 9 15 29.93 1014 10 16 N/A
5:52 pm 17:52 Cloudy 58 14.4 38 3.3 48 48 S 9 15 29.93 1014 10 16 N/A
6:52 pm 18:52 Cloudy 55 12.8 39 3.9 55 55 S 7 11 29.93 1014 10 16 N/A
7:52 pm 19:52 Mostly Cloudy 56 13.3 40 4.4 55 55 S 10 17 29.93 1013 10 16 N/A
8:52 pm 20:52 Mostly Cloudy 56 13.3 42 5.6 60 60 S 12 19 29.92 1013 10 16 N/A
9:52 pm 21:52 Mostly Cloudy 51 10.6 41 5 69 69 S 7 11 29.91 1013 10 16 N/A
10:52 pm 22:52 Mostly Cloudy 53 11.7 41 5 64 64 S 8 13 29.91 1013 10 16 N/A
11:52 pm 23:52 Cloudy 53 11.7 41 5 64 64 S 9 15 29.92 1013 10 16 N/A

Powered by AerisWeather